GEFSMW_con_probscp_144.txt.gz
Probability
25 20 15 11 7 7 9 10 9 8 7 6 4 3 1 0 0 0 0 0 0 0 0 1 1 2 2 2 2 1 0 0 0 0 0 0 0 0 0 0 0 0 0
28 22 15 12 9 7 8 9 8 6 6 6 4 3 2 0 0 0 0 0 0 0 0 1 1 1 1 1 1 0 0 0 0 0 0 0 0 0 0 0 0 0 0
30 24 16 13 11 9 9 9 7 5 5 5 4 3 1 0 0 0 0 0 0 0 0 0 0 0 0 0 0 0 0 0 0 0 0 0 0 0 0 0 0 0 0
29 24 17 15 13 11 9 8 6 4 4 3 3 2 1 0 0 0 0 0 0 0 0 0 0 0 0 0 0 0 1 0 0 0 0 0 0 0 0 0 0 0 0
25 22 19 17 13 10 9 7 5 3 2 1 1 1 0 0 0 0 0 0 0 0 0 0 0 0 0 0 0 0 0 0 0 0 0 0 0 0 0 0 0 0 0
22 21 20 18 14 10 9 7 5 3 1 0 0 0 0 0 0 0 0 0 0 0 0 0 0 0 0 0 0 0 0 0 0 0 0 0 0 0 0 0 0 0 0
19 19 18 16 15 12 11 9 7 4 2 0 0 0 0 0 0 0 0 0 0 0 0 0 0 0 0 0 0 0 0 0 0 0 0 0 0 0 0 0 0 0 0
14 15 16 16 16 15 14 11 8 5 3 1 0 0 0 0 0 0 0 0 0 0 0 0 0 0 0 0 0 0 0 0 0 0 0 0 0 0 0 0 0 0 0
9 11 13 14 16 17 15 11 8 5 3 2 0 0 0 0 0 0 0 0 0 0 0 0 0 0 0 0 0 0 0 0 0 0 0 0 0 0 0 0 0 0 0
7 9 11 12 15 16 13 8 6 4 2 1 0 1 1 1 0 0 0 0 0 0 0 0 0 0 0 0 0 0 0 0 0 0 0 0 0 0 0 0 0 0 0
8 9 10 12 13 14 11 7 4 2 1 0 1 2 2 1 0 0 0 0 0 0 0 0 0 0 0 0 0 0 0 0 0 0 0 0 0 0 0 0 0 0 0
8 9 10 10 11 11 8 5 3 1 0 0 1 2 2 1 0 0 0 0 0 0 0 0 0 0 0 0 0 0 0 0 0 0 0 0 0 0 0 0 0 0 0
8 8 8 7 7 7 5 2 1 0 0 0 0 1 1 0 0 0 0 0 0 0 0 0 0 0 0 0 0 0 0 0 0 0 0 0 0 0 0 0 0 0 0
6 6 5 4 4 4 2 1 0 0 0 0 0 0 0 0 0 0 0 0 0 0 0 0 0 0 0 0 0 0 0 0 0 0 0 0 0 0 0 0 0 0 0
4 4 4 3 2 1 1 0 0 0 0 0 0 0 0 0 0 0 0 0 0 0 0 0 0 0 0 0 0 0 0 0 0 0 0 0 0 0 0 0 0 0 0
1 2 3 2 0 0 0 0 0 0 0 0 0 0 0 0 0 0 0 0 0 0 0 0 0 0 0 0 0 0 0 0 0 0 0 0 0 0 0 0 0 0 0
0 1 1 0 0 0 0 0 0 0 0 0 0 0 0 0 0 0 0 0 0 0 0 0 0 0 0 0 0 0 0 0 0 0 0 0 0 0 0 0 0 0 0
0 0 0 0 0 0 0 0 0 0 0 0 0 0 0 0 0 0 0 0 0 0 0 0 0 0 0 0 0 0 0 0 0 0 0 0 0 0 0 0 0 0 0
0 0 0 0 0 0 0 0 0 0 0 0 0 0 0 0 0 0 0 0 0 0 0 0 0 0 0 0 0 0 0 0 0 0 0 0 0 0 0 0 0 0 0
0 0 0 0 0 0 0 0 0 0 0 0 0 0 0 0 0 0 0 0 0 0 0 0 0 0 0 0 0 0 0 0 0 0 0 0 0 0 0 0 0 0 0
0 0 0 0 0 0 0 0 0 0 0 0 0 0 0 0 0 0 0 0 0 0 0 0 0 0 0 0 0 0 0 0 0 0 0 0 0 0 0 0 0 0 0
0 0 0 0 0 0 0 0 0 0 0 0 0 0 0 0 0 0 0 0 0 0 0 0 0 0 0 0 0 0 0 0 0 0 0 0 0 0 0 0 0 0 0
0 0 0 0 0 0 0 0 0 0 0 0 0 0 0 0 0 0 0 0 0 0 0 0 0 0 0 0 0 0 0 0 0 0 0 0 0 0 0 0 0 0 0
0 0 0 0 0 0 0 0 0 0 0 0 0 0 0 0 0 0 0 0 0 0 0 0 0 0 0 0 0 0 0 0 0 0 0 0 0 0 0 0 0 0 0
0 0 0 0 0 0 0 0 0 0 0 0 0 0 0 0 0 0 0 0 0 0 0 0 0 0 0 0 0 0 0 0 0 0 0 0 0 0 0 0 0 0 0
0 0 0 0 0 0 0 0 0 0 0 0 0 0 0 0 0 0 0 0 0 0 0 0 0 0 0 0 0 0 0 0 0 0 0 0 0 0 0 0 0 0 0

GEFSMW_con_probscp_150.txt.gz
Probability
31 34 34 32 33 38 44 48 48 47 46 45 40 32 23 15 12 13 12 9 9 10 11 10 9 8 8 8 8 11 13 13 14 11 9 9 9 8 9 9 6 2 1
31 33 34 33 33 37 43 48 48 46 45 44 39 32 23 17 16 16 14 10 8 9 10 11 9 7 7 8 8 10 12 12 11 9 8 8 8 8 7 6 6 4 4
32 33 35 36 33 34 40 43 42 40 38 37 34 27 22 19 19 17 14 11 9 9 10 9 7 6 6 7 7 8 8 8 7 7 9 9 8 7 7 6 6 7 8
31 33 35 35 32 31 34 36 35 31 29 28 25 21 18 17 17 15 12 11 11 10 8 6 5 6 6 7 8 7 7 6 5 6 8 9 9 7 6 6 5 7 9
26 29 30 29 29 29 29 30 29 26 23 21 19 17 15 13 13 13 11 10 9 9 6 4 3 3 5 6 7 7 7 6 4 4 5 6 8 8 6 4 4 5 6
19 22 23 23 27 29 27 26 26 23 19 16 15 15 14 12 12 12 10 9 8 7 5 3 1 1 2 3 4 4 5 4 2 2 3 3 5 6 5 4 3 4 4
13 16 18 20 24 27 26 24 23 20 17 15 13 12 12 11 11 11 8 7 6 6 4 2 0 0 0 1 1 1 2 2 1 1 1 2 3 3 3 4 4 4 3
8 11 16 19 22 24 24 22 21 20 18 16 14 12 11 11 14 14 10 7 6 5 3 1 0 0 0 0 0 0 0 0 0 0 0 1 1 1 1 2 3 3 3
6 9 13 17 19 23 24 22 21 21 19 17 15 14 13 14 17 17 12 8 6 4 3 2 0 0 0 0 0 0 1 1 0 0 0 0 0 1 1 1 1 1 2
6 8 10 15 20 23 24 24 23 23 21 19 17 15 15 15 16 14 10 7 5 4 2 1 0 0 0 0 0 1 1 1 0 0 0 0 0 1 2 1 0 1 2
6 7 10 15 19 22 23 23 23 23 22 21 20 17 14 14 12 10 8 6 4 2 1 0 0 0 0 0 1 1 1 1 0 0 0 0 0 1 1 1 0 0 1
6 7 10 14 18 20 21 20 19 19 20 20 19 16 14 12 11 10 8 6 3 1 0 0 0 0 0 0 0 0 0 0 0 0 0 0 0 0 0 0 0 0 0
6 5 7 11 15 16 16 14 13 13 14 16 15 12 11 10 9 8 6 4 2 0 0 0 0 0 0 0 0 0 0 0 0 0 0 0 0 0 0 0 0 0 0
6 5 6 9 11 11 11 9 8 7 8 9 9 7 6 5 4 3 2 1 0 0 0 0 0 0 0 0 0 0 0 0 0 0 0 0 0 0 0 0 0 0 0
6 6 6 8 9 7 6 5 4 3 2 3 4 3 2 1 1 0 0 0 0 0 0 0 0 0 0 0 0 0 0 0 0 0 0 0 0 0 0 0 0 0 0
4 5 6 7 7 5 3 2 1 0 0 1 1 1 0 0 0 0 0 0 0 0 0 1 0 0 0 0 0 0 0 0 0 0 0 0 0 0 0 0 0 0 0
2 3 5 6 5 3 1 0 0 0 0 0 0 0 0 0 0 0 0 0 0 0 0 0 0 0 0 0 0 0 0 0 0 0 0 0 0 0 0 0 0 0 0
2 3 4 5 4 3 1 0 0 0 0 0 0 0 0 0 0 0 0 0 0 0 0 0 0 0 0 0 0 0 0 0 0 0 0 0 0 0 0 0 0 0 0
5 4 4 4 4 2 1 0 0 0 0 0 0 0 0 0 0 0 0 0 0 0 0 0 0 0 0 0 0 0 0 0 0 0 0 0 0 0 0 0 0 0 0
7 6 4 3 2 1 0 0 0 0 0 0 0 0 0 0 0 0 0 0 0 0 0 0 0 0 0 0 0 0 0 0 0 0 0 0 0 0 0 0 0 0 0
6 7 5 2 1 0 0 0 0 0 0 0 0 0 0 0 0 0 0 0 0 0 0 0 0 0 0 0 0 0 0 0 0 0 0 0 0 0 0 0 0 0 0
5 6 5 2 0 0 0 0 0 0 0 0 0 0 0 0 0 0 0 0 0 0 0 0 0 0 0 0 0 0 0 0 0 0 0 0 0 0 0 0 0 0 0
5 6 5 3 1 0 0 0 0 0 0 0 0 0 0 0 0 0 0 0 0 0 0 0 0 0 0 0 0 0 0 0 0 0 0 0 0 0 0 0 0 0 0
5 5 5 3 1 0 0 1 0 0 0 0 0 0 0 0 0 0 0 0 0 0 0 0 0 0 0 0 0 0 0 0 0 0 0 0 0 0 0 0 0 0 0
4 4 4 2 1 0 0 0 0 0 0 0 0 0 0 0 0 0 0 0 0 0 0 0 0 0 0 0 0 0 0 0 0 0 0 0 0 0 0 0 0 0 0
2 3 3 1 0 0 0 0 0 0 0 0 0 0 0 0 0 0 0 0 0 0 0 0 0 0 0 0 0 0 0 0 0 0 0 0 0 0 0 0 0 0 0

GEFSMW_con_probscp_156.txt.gz
Probability
52 56 59 62 65 67 67 65 65 64 62 61 61 63 63 60 57 54 47 38 30 24 21 24 27 25 24 24 20 15 11 10 9 8 7 7 9 13 20 25 24 23 25
51 53 55 56 58 61 62 61 63 63 61 61 61 61 60 55 52 50 46 38 30 25 23 26 26 25 26 25 21 16 13 12 10 10 8 6 6 10 17 22 22 21 22
47 47 48 46 45 49 54 56 58 58 57 57 57 57 55 50 45 44 43 37 31 27 26 27 26 26 26 25 21 18 16 14 12 12 10 6 4 7 12 15 17 18 19
39 40 41 39 36 40 46 50 51 51 49 48 48 49 48 44 39 38 38 36 31 29 27 25 25 24 24 24 22 19 17 14 12 12 11 8 6 5 6 8 11 15 15
34 36 37 36 34 36 39 42 44 43 42 41 41 41 40 38 35 32 31 30 29 26 23 22 21 20 21 23 24 20 15 12 11 11 11 9 7 6 4 4 6 9 10
34 36 37 35 33 33 34 36 39 40 40 39 39 37 35 33 31 28 25 24 22 20 19 18 17 17 18 20 21 17 13 10 10 11 10 8 6 5 5 3 3 4 5
31 33 35 35 33 33 34 36 39 40 40 39 39 36 33 29 27 25 23 20 18 16 16 15 13 13 14 16 16 14 11 9 8 8 7 5 3 3 3 2 1 1 2
28 28 30 31 31 32 35 38 38 38 38 38 37 35 30 26 25 25 22 20 19 17 16 14 11 10 11 11 12 11 10 8 5 3 2 1 1 1 1 0 0 0 1
23 24 25 27 27 27 32 36 36 35 35 35 34 32 29 26 25 25 23 22 21 19 17 14 11 9 8 7 7 7 7 6 3 1 0 0 0 0 0 0 0 0 0
19 19 22 25 25 24 29 33 34 34 33 31 30 30 28 26 25 24 23 23 22 20 17 14 11 7 3 2 2 2 3 3 1 0 0 0 0 0 0 0 0 0 0
17 16 20 25 26 25 27 30 33 33 31 27 26 27 26 26 25 25 23 22 21 18 16 13 9 3 0 0 0 0 1 1 0 0 0 0 0 0 0 0 0 0 0
17 16 19 24 27 26 25 27 29 29 26 23 22 24 25 25 25 25 23 21 18 15 13 10 5 2 0 0 0 0 0 0 0 0 0 0 0 0 0 0 0 0 0
21 18 18 22 24 23 23 23 23 23 21 20 21 22 22 22 23 23 22 19 16 13 9 4 2 1 2 1 0 0 0 0 0 0 0 0 0 0 0 0 0 0 0
23 20 18 20 21 22 22 21 20 19 18 18 19 19 19 18 18 19 18 17 15 10 5 2 1 2 3 2 1 1 0 0 0 0 0 0 0 0 0 0 0 0 0
20 19 18 17 17 18 19 20 19 17 16 16 15 14 14 14 13 13 14 14 11 7 3 2 2 3 3 2 2 1 0 0 0 0 0 0 0 0 0 0 0 0 0
17 17 15 14 13 14 15 15 15 15 13 12 10 8 9 9 9 9 10 10 9 6 3 3 3 3 2 1 1 1 0 0 0 0 0 0 0 0 0 0 0 0 0
17 16 15 14 13 14 13 12 11 12 11 9 6 4 4 5 5 5 6 7 6 4 3 3 3 3 1 0 0 0 0 0 0 0 0 0 0 0 0 0 0 0 0
16 15 15 15 15 14 13 10 8 8 8 6 4 3 2 1 1 2 2 4 4 3 3 3 3 2 1 0 0 0 0 0 0 0 0 0 0 0 0 0 0 0 0
14 14 14 14 15 13 10 7 5 4 4 4 3 2 1 0 0 1 1 3 3 3 3 3 3 1 0 0 0 0 0 0 0 0 0 0 0 0 0 0 0 0 0
14 13 13 13 14 12 7 4 2 1 2 2 2 1 0 0 0 1 2 3 3 3 3 3 2 1 0 0 0 0 0 0 0 0 0 0 0 0 0 0 0 0 0
13 12 12 12 12 11 7 3 1 0 0 1 1 1 0 0 0 1 2 3 4 3 3 2 1 0 0 0 0 0 0 0 0 0 0 0 0 0 0 0 0 0 0
10 10 10 11 11 10 8 4 1 0 0 0 0 0 0 0 0 1 2 3 4 3 2 1 0 0 0 0 0 0 0 0 0 0 0 0 0 0 0 0 0 0 0
9 8 8 9 10 9 8 5 2 1 0 0 0 0 0 0 0 1 2 2 2 2 1 0 0 0 0 0 0 0 0 0 0 0 0 0 0 0 0 0 0 0 0
8 7 7 8 9 8 7 5 3 2 1 1 1 0 0 0 0 0 1 1 0 0 0 0 0 0 0 0 0 0 0 0 0 0 0 0 0 0 0 0 0 0 0
7 7 7 7 7 6 5 4 4 3 3 2 2 1 0 0 0 0 0 0 0 0 0 0 0 0 0 0 0 0 0 0 0 0 0 0 0 0 0 0 0 0 0
6 6 6 6 6 6 5 4 4 4 3 3 3 2 1 0 0 0 0 0 0 0 0 0 0 0 0 0 0 0 0 0 0 0 0 0 0 0 0 0 0 0 0

GEFSMW_con_probscp_162.txt.gz
Probability
40 41 43 45 42 37 37 39 39 39 43 44 42 41 40 36 29 25 24 23 16 10 7 5 5 6 5 4 3 1 0 0 0 0 0 0 0 0 0 0 0 0 0
38 37 37 38 37 35 35 35 32 32 35 38 38 37 37 33 28 25 24 22 18 13 8 5 4 6 6 6 4 2 0 0 0 0 0 0 0 0 0 0 0 0 0
32 29 29 30 31 31 31 30 27 26 27 29 31 31 30 28 25 23 21 19 16 13 9 5 4 6 7 6 5 3 1 0 0 0 0 0 0 0 0 0 0 0 0
24 23 23 25 26 26 26 26 26 25 23 23 25 24 22 20 19 18 15 12 11 11 8 6 6 6 6 5 4 2 1 1 0 0 0 0 0 0 0 0 0 0 0
19 19 19 22 24 24 25 25 25 24 22 20 20 19 17 16 14 12 9 7 7 8 8 7 6 6 5 4 2 1 1 1 1 0 0 0 0 0 0 0 0 0 0
17 18 18 19 22 24 25 24 24 23 21 20 18 16 16 15 13 9 6 5 6 6 6 6 6 5 3 2 0 0 0 0 0 0 0 0 0 0 0 0 0 0 0
16 18 20 20 21 23 23 23 22 21 20 19 16 15 16 15 14 9 6 5 6 6 5 4 4 4 3 1 0 0 0 0 0 0 0 0 0 0 0 0 0 0 0
15 16 19 19 19 20 22 22 21 20 19 16 14 14 14 14 13 10 7 6 6 5 4 3 3 3 3 2 1 0 0 0 0 0 0 0 0 0 0 0 0 0 0
12 13 14 15 15 17 20 21 20 19 17 15 13 12 11 10 10 10 8 6 6 4 3 3 3 3 3 2 1 0 0 0 0 0 0 0 0 0 0 0 0 0 0
10 10 11 11 11 13 15 17 16 16 14 13 12 11 9 7 7 8 7 6 5 4 3 3 3 3 2 1 0 0 0 0 0 0 0 0 0 0 0 0 0 0 0
8 9 10 10 9 9 9 10 12 12 10 9 10 9 8 6 6 7 7 6 4 3 3 3 3 2 1 0 0 0 0 0 0 0 0 0 0 0 0 0 0 0 0
6 8 10 10 8 7 6 6 8 8 8 7 7 7 7 6 5 6 6 6 4 3 3 3 2 1 1 1 0 0 0 0 0 0 0 0 0 0 0 0 0 0 0
4 6 8 8 7 7 6 6 6 6 7 7 6 6 6 6 6 5 6 6 5 4 3 2 1 1 1 2 1 0 0 0 0 0 0 0 0 0 0 0 0 0 0
4 5 6 5 5 6 6 6 6 6 7 6 6 6 6 6 6 6 6 6 6 5 3 1 0 0 1 1 1 0 0 0 0 0 0 0 0 0 0 0 0 0 0
5 6 6 5 5 5 5 6 6 5 5 6 6 6 6 6 6 6 6 6 6 5 3 1 0 0 0 0 0 0 0 0 0 0 0 0 0 0 0 0 0 0 0
6 7 7 7 6 6 6 5 4 3 3 4 5 5 5 4 4 4 5 5 5 3 1 0 0 0 0 0 0 0 0 0 0 0 0 0 0 0 0 0 0 0 0
5 6 7 6 6 6 6 5 3 1 1 1 2 2 2 1 1 2 3 3 2 1 0 0 0 0 0 0 0 0 0 0 0 0 0 0 0 0 0 0 0 0 0
4 5 5 5 5 5 5 5 3 1 0 0 0 0 0 0 0 1 1 1 0 0 0 0 0 0 0 0 0 0 0 0 0 0 0 0 0 0 0 0 0 0 0
4 4 4 3 2 2 3 3 2 1 0 0 0 0 0 0 0 0 0 0 0 0 0 0 0 0 0 0 0 0 0 0 0 0 0 0 0 0 0 0 0 0 0
2 3 3 3 2 1 1 2 1 0 0 0 0 0 0 0 0 0 0 0 0 0 0 0 0 0 0 0 0 0 0 0 0 0 0 0 0 0 0 0 0 0 0
0 1 3 3 3 2 1 0 0 0 0 0 0 0 0 0 0 0 0 0 0 0 0 0 0 0 0 0 0 0 0 0 0 0 0 0 0 0 0 0 0 0 0
0 1 2 3 3 2 1 0 0 0 0 0 0 0 0 0 0 0 0 0 0 0 0 0 0 0 0 0 0 0 0 0 0 0 0 0 0 0 0 0 0 0 0
0 1 3 3 3 2 1 0 0 0 0 0 0 0 0 0 0 0 0 0 0 0 0 0 0 0 0 0 0 0 0 0 0 0 0 0 0 0 0 0 0 0 0
1 2 3 3 3 2 1 0 0 0 0 0 0 0 0 0 0 0 0 0 0 0 0 0 0 0 0 0 0 0 0 0 0 0 0 0 0 0 0 0 0 0 0
1 2 3 3 3 2 1 0 0 0 0 0 0 0 0 0 0 0 0 0 0 0 0 0 0 0 0 0 0 0 0 0 0 0 0 0 0 0 0 0 0 0 0
0 1 3 3 3 2 1 0 0 0 0 0 0 0 0 0 0 0 0 0 0 0 0 0 0 0 0 0 0 0 0 0 0 0 0 0 0 0 0 0 0 0 0

GEFSMW_con_probscp_168.txt.gz
Probability
8 9 10 12 14 18 20 20 19 19 20 20 21 22 20 15 11 9 6 6 8 8 6 4 3 2 1 1 2 1 0 0 0 0 0 0 0 0 0 0 0 0 1
6 7 9 12 15 18 19 21 21 20 19 19 18 18 16 13 11 10 8 7 8 9 7 6 3 1 0 1 1 1 0 0 0 0 0 0 0 0 0 0 0 0 1
6 5 6 11 15 17 18 20 22 22 21 19 17 15 12 10 11 11 9 8 9 8 7 5 2 0 0 0 0 0 1 1 0 0 0 0 0 0 0 0 0 0 1
5 5 6 10 13 16 17 18 21 22 22 20 17 14 11 9 9 10 9 8 7 5 3 3 2 1 0 0 0 1 2 2 1 0 0 0 0 0 0 0 0 0 0
7 9 10 10 11 13 14 16 18 20 20 19 15 13 11 9 8 9 8 7 4 2 1 1 2 1 0 0 1 2 3 3 2 1 0 0 0 0 0 0 0 0 0
12 13 14 11 10 10 11 15 17 18 18 16 14 12 11 9 9 9 9 7 4 2 2 2 2 2 1 0 1 2 3 3 3 2 1 0 0 0 0 0 0 0 0
13 14 13 11 9 9 11 14 16 16 16 15 14 12 11 10 10 10 9 8 5 3 3 3 4 4 3 2 2 3 3 3 3 2 1 0 0 0 0 0 0 0 0
9 9 10 9 9 9 11 13 14 13 13 13 12 11 10 10 10 9 9 7 5 4 3 3 4 5 5 5 4 4 3 3 3 2 1 0 0 0 0 0 0 0 0
3 5 7 8 8 8 9 11 11 10 8 9 9 8 8 8 9 8 7 6 5 4 3 3 3 4 5 6 5 4 3 3 3 2 1 0 0 0 0 0 0 0 0
1 3 6 7 6 7 8 8 8 7 5 5 6 7 6 7 7 7 7 6 4 3 3 3 3 3 4 5 5 4 3 2 1 1 0 0 0 0 0 0 0 0 0
1 3 5 5 5 6 7 6 5 5 4 4 6 6 5 5 5 6 6 5 4 3 3 3 3 3 3 4 4 4 2 1 0 0 0 0 0 0 0 0 0 0 0
1 2 3 3 3 5 5 4 3 4 4 4 5 5 4 4 4 4 5 4 3 3 3 3 3 3 3 3 4 3 1 0 0 0 0 0 0 0 0 0 0 0 0
0 1 2 2 1 2 3 2 1 2 2 3 4 4 3 3 3 3 4 3 3 3 3 3 3 3 3 3 3 2 1 0 0 0 0 0 0 0 0 0 0 0 0
0 0 1 1 0 0 1 1 0 0 0 1 2 3 3 3 3 3 3 3 3 3 3 3 3 3 3 2 1 1 0 0 0 0 0 0 0 0 0 0 0 0 0
0 0 0 0 0 0 0 0 0 0 0 1 2 3 3 3 3 3 3 3 3 3 3 3 3 3 3 1 0 0 0 0 0 0 0 0 0 0 0 0 0 0 0
1 0 0 1 1 0 0 0 0 0 0 1 2 3 3 3 3 3 3 3 3 3 3 3 4 4 2 1 0 0 0 0 0 0 0 0 0 0 0 0 0 0 0
2 1 0 1 2 1 0 0 0 0 0 1 1 2 2 2 2 2 3 3 3 3 3 4 4 3 1 0 0 0 0 0 0 0 0 0 0 0 0 0 0 0 0
2 1 0 1 1 1 0 0 0 0 0 0 0 1 1 1 1 1 1 2 3 3 3 3 3 2 0 0 0 0 0 0 0 0 0 0 0 0 0 0 0 0 0
1 0 0 0 0 0 0 0 0 0 0 0 0 0 0 0 0 0 0 1 2 2 2 1 1 0 0 0 0 0 0 0 0 0 0 0 0 0 0 0 0 0 0
0 0 0 0 0 0 1 1 1 0 0 0 0 0 0 0 0 0 0 0 1 1 1 0 0 0 0 0 0 0 0 0 0 0 0 0 0 0 0 0 0 0 0
0 0 0 0 0 0 2 2 1 0 0 0 0 0 0 0 0 0 0 0 0 0 0 0 0 0 0 0 0 0 0 0 0 0 0 0 0 0 0 0 0 0 0
0 0 0 0 0 0 1 2 2 1 0 0 0 0 0 0 0 0 0 0 0 0 0 0 0 0 0 0 0 0 0 0 0 0 0 0 0 0 0 0 0 0 0
0 0 0 0 0 0 0 1 2 2 1 0 0 0 0 0 0 0 0 0 0 0 0 0 0 0 0 0 0 0 0 0 0 0 0 0 0 0 0 0 0 0 0
0 0 0 0 0 0 0 1 2 3 2 1 0 0 0 0 0 0 0 0 0 0 0 0 0 0 0 0 0 0 0 0 0 0 0 0 0 0 0 0 0 0 0
0 0 0 0 0 0 0 0 1 2 2 1 0 0 0 0 0 0 0 0 0 0 0 0 0 0 0 0 0 0 0 0 0 0 0 0 0 0 0 0 0 0 0
0 0 0 0 0 0 0 0 1 2 1 0 0 0 0 0 0 0 0 0 0 0 0 0 0 0 0 0 0 0 0 0 0 0 0 0 0 0 0 0 0 0 0

GEFSMW_con_probscp_174.txt.gz
Probability
16 20 22 27 35 39 40 41 40 40 42 43 42 40 36 34 34 34 33 31 28 27 29 30 30 31 33 36 34 28 24 24 24 21 16 10 7 8 9 8 5 3 4
15 16 18 23 29 35 37 38 37 37 39 41 41 40 38 34 32 32 30 27 25 23 24 27 30 31 31 32 32 28 24 23 23 21 16 9 6 7 6 5 4 2 2
13 12 14 18 23 27 29 29 31 33 35 36 34 34 33 30 28 27 27 24 21 20 21 24 27 30 29 29 30 28 25 22 21 19 15 9 6 5 4 2 3 2 1
11 11 12 16 20 21 23 24 27 30 32 29 26 25 25 24 24 25 25 22 19 19 20 21 23 26 28 29 29 26 24 22 19 16 12 8 6 6 5 3 3 3 3
10 10 11 13 16 18 21 25 28 30 30 26 21 20 20 21 23 24 23 21 19 18 19 19 20 22 25 26 25 22 21 19 16 12 9 7 6 6 5 4 4 4 5
12 11 11 11 13 15 19 22 25 27 27 23 20 20 21 22 24 23 20 18 18 18 18 18 18 20 21 21 20 19 18 16 14 10 8 7 6 5 5 4 4 4 4
12 12 12 11 10 12 14 17 18 20 21 21 23 23 23 24 23 20 17 15 15 16 16 16 16 18 18 17 16 16 15 14 13 10 8 7 6 6 5 3 2 3 3
11 12 12 11 10 10 11 13 15 16 18 21 23 23 23 23 21 17 14 12 11 11 11 11 12 14 15 14 13 13 13 12 12 10 8 7 6 6 5 3 1 1 2
11 11 10 9 9 9 9 11 12 14 17 18 19 19 18 19 18 15 12 10 9 8 7 7 9 10 11 11 10 10 12 13 12 10 8 7 7 7 6 5 2 1 1
10 10 9 9 9 7 6 7 9 12 13 14 14 14 15 16 16 14 11 10 8 6 5 6 7 8 8 9 9 10 12 13 12 10 8 7 7 8 8 7 4 2 0
7 9 9 9 8 6 4 4 6 9 10 11 12 12 13 14 14 12 9 8 7 5 4 6 7 7 7 8 9 10 11 10 9 7 6 6 6 7 8 7 5 3 1
4 6 8 8 7 4 2 2 4 6 8 9 10 9 9 11 12 10 8 7 6 4 4 5 6 6 6 7 9 9 7 6 5 4 4 4 4 5 5 5 4 2 2
3 4 6 7 6 4 3 2 2 3 5 5 5 5 6 8 9 8 7 6 6 5 4 4 5 6 6 6 7 6 5 4 3 3 3 3 3 3 3 3 1 1 1
4 5 6 6 5 4 3 2 2 1 1 1 1 1 2 4 5 6 6 6 6 6 4 4 4 4 4 4 4 4 3 3 3 3 3 3 2 2 2 1 0 0 0
4 4 5 5 3 2 2 2 1 0 0 0 0 0 0 1 2 4 6 6 6 6 5 4 3 3 3 3 3 3 3 3 3 3 2 1 1 1 1 0 0 0 0
3 3 4 3 1 0 0 0 0 0 0 0 0 0 0 0 1 3 5 6 6 6 6 5 4 3 3 3 3 3 3 3 3 3 1 0 0 0 0 0 0 0 0
3 3 3 3 1 1 1 1 0 0 0 0 0 0 0 0 2 4 5 6 6 6 6 6 5 4 3 2 1 2 3 4 3 3 1 0 0 0 0 0 0 0 0
1 2 2 2 2 2 2 2 1 0 0 0 0 0 0 0 1 3 5 5 6 6 6 6 6 6 4 1 0 1 3 4 4 3 2 1 0 0 0 0 0 0 0
0 1 1 1 1 1 2 3 3 1 0 0 0 0 0 0 1 2 3 5 6 6 6 6 6 6 5 2 0 1 2 3 3 3 2 1 0 0 0 0 0 0 0
0 0 0 0 0 1 2 4 3 2 1 0 0 0 0 0 0 1 1 4 6 7 5 4 4 4 4 2 0 0 2 3 3 3 2 1 0 0 0 0 0 0 0
0 0 0 0 0 2 4 5 4 3 2 1 0 0 0 0 0 0 1 3 5 6 5 4 3 3 3 2 1 0 1 2 2 1 1 0 0 0 0 0 0 0 0
0 0 0 0 0 2 5 6 5 4 3 2 1 1 0 0 0 0 1 2 3 5 4 3 2 2 2 2 1 0 1 1 1 0 0 0 0 0 0 0 0 0 0
0 0 0 0 1 3 4 4 4 3 3 2 2 2 1 0 0 0 0 1 2 4 4 2 1 0 1 2 1 0 0 0 0 0 0 0 0 0 0 0 0 0 0
0 0 0 1 2 3 3 2 2 3 3 3 3 3 1 0 0 0 0 0 1 2 2 1 0 0 1 1 1 1 0 0 0 0 0 0 0 0 0 0 0 0 0
0 0 0 1 2 2 1 1 2 2 3 3 3 3 2 1 0 0 0 0 0 1 1 0 0 0 0 0 0 0 0 0 0 0 0 0 0 0 0 0 0 0 1
0 0 0 0 1 1 0 0 1 2 3 3 3 3 2 1 0 0 0 0 0 0 0 0 0 0 0 0 0 0 0 0 0 0 0 0 0 0 0 0 0 1 1

GEFSMW_con_probscp_180.txt.gz
Probability
32 36 40 44 48 54 56 54 54 55 56 59 59 55 51 47 42 39 40 41 39 39 39 38 38 38 37 36 34 32 27 21 19 15 8 3 3 5 7 9 8 4 3
33 33 35 38 44 50 52 50 51 53 55 58 58 54 48 43 40 38 39 40 38 37 36 37 37 36 35 34 32 30 25 20 18 17 11 5 3 4 6 7 6 3 3
32 30 28 32 40 46 48 48 51 52 54 55 53 47 44 41 40 40 40 39 37 35 35 35 34 33 32 32 30 28 24 19 17 17 13 7 4 5 7 8 6 5 5
31 28 26 30 37 42 45 48 50 51 51 49 45 42 41 40 39 40 40 38 36 35 35 34 32 30 29 29 28 26 24 18 14 14 12 8 6 6 7 8 8 7 8
29 27 26 29 35 38 41 45 47 47 45 42 40 38 36 35 34 35 36 35 35 34 33 30 27 26 25 25 25 24 21 17 14 13 11 9 6 6 5 5 6 7 7
24 24 24 28 32 35 37 38 39 38 36 35 35 33 31 29 29 30 31 31 31 31 28 24 21 21 21 21 21 20 18 15 14 13 12 9 7 6 5 4 4 5 5
18 18 20 24 27 30 32 31 29 29 29 29 29 28 26 24 24 24 24 24 24 24 23 20 17 17 17 16 17 17 15 12 12 12 11 10 8 7 6 6 5 3 2
15 15 16 18 21 25 27 25 23 24 25 25 23 22 21 20 18 17 16 16 15 16 17 16 15 13 12 12 12 13 12 10 10 10 10 9 8 7 6 6 4 2 1
14 14 14 16 18 21 22 20 19 20 21 20 18 16 16 17 15 13 12 12 11 12 13 12 11 9 8 7 8 10 11 10 9 8 8 7 7 6 5 4 3 1 0
12 12 12 14 17 18 17 15 14 17 16 15 14 13 13 14 15 14 12 11 11 11 10 8 6 6 5 4 5 8 9 9 8 7 5 5 5 5 4 3 2 1 1
11 10 10 11 13 14 12 10 9 11 11 10 11 11 9 10 13 14 11 9 8 7 6 4 3 4 4 3 4 6 7 8 8 6 4 4 4 4 3 3 2 1 1
9 8 9 9 9 9 8 6 4 5 8 9 9 8 7 8 10 11 10 8 6 4 2 2 2 3 3 3 4 4 5 6 6 5 5 5 4 3 3 3 3 2 2
6 6 6 6 6 6 5 4 2 2 5 8 7 5 5 6 7 7 6 6 5 3 1 2 2 2 2 3 4 4 4 4 4 4 5 5 3 3 3 3 3 3 3
4 4 3 4 5 5 4 3 2 2 4 5 5 4 3 3 3 3 3 3 3 2 2 2 2 1 1 3 4 3 3 3 3 4 4 4 3 3 3 3 3 3 3
3 3 3 3 4 4 3 2 2 3 3 3 3 3 3 2 1 1 1 2 3 3 3 4 3 2 1 2 3 3 3 3 3 3 3 3 3 3 3 3 3 2 1
3 3 4 4 4 4 3 3 3 3 3 2 1 2 3 3 2 2 2 2 4 4 4 4 4 3 2 1 2 3 3 4 4 4 4 4 4 4 3 3 2 1 0
4 3 4 5 5 5 4 3 3 3 3 2 1 2 2 3 3 3 3 3 4 4 3 3 4 4 3 1 1 2 4 5 6 6 6 5 5 5 3 2 1 0 0
3 2 3 4 5 4 3 3 3 3 3 3 2 2 2 3 4 3 2 2 3 4 3 3 4 5 3 1 0 1 3 5 6 7 7 7 6 5 3 1 0 0 0
2 2 1 2 2 3 3 3 3 3 3 3 2 2 3 4 5 3 1 1 3 5 4 3 4 4 2 1 0 0 2 4 6 6 6 4 3 3 1 1 0 0 0
1 1 0 0 1 2 3 3 3 3 3 3 3 3 4 4 5 3 2 2 4 5 5 4 4 3 2 0 0 0 1 3 4 4 3 1 1 1 0 0 0 0 0
0 0 0 0 1 3 4 4 3 3 3 3 4 5 5 4 4 3 4 4 5 5 4 3 4 4 2 1 0 1 2 3 2 1 1 0 0 0 0 0 0 0 0
0 0 0 0 2 3 5 5 4 3 3 3 4 5 4 3 3 4 5 5 4 4 3 3 3 3 2 1 0 1 2 2 1 0 0 0 0 0 0 0 0 0 0
0 0 0 0 1 3 4 4 4 4 3 4 5 5 4 3 4 5 4 3 2 2 2 3 3 3 1 0 0 0 1 1 0 0 0 0 0 0 0 0 0 0 0
0 0 0 0 0 1 2 3 4 3 4 4 4 4 3 4 6 7 4 2 1 0 1 3 3 2 1 0 0 0 0 0 0 0 0 0 0 0 0 0 0 0 0
0 0 0 0 0 0 1 2 3 3 3 3 2 2 3 5 6 6 4 2 0 0 1 2 2 1 0 0 0 0 0 0 0 0 0 0 0 0 0 0 0 0 0
0 0 0 0 0 0 1 2 3 3 3 1 1 2 3 4 5 5 4 2 0 0 0 1 1 0 0 0 0 0 0 0 0 0 0 0 0 0 0 0 0 0 0

GEFSMW_con_probscp_186.txt.gz
Probability
27 26 22 21 23 24 22 18 15 16 16 16 16 15 14 13 15 16 16 16 17 17 16 15 15 14 12 10 8 4 1 1 2 4 4 2 0 0 0 0 0 0 0
23 21 19 20 21 20 19 16 13 13 14 14 14 13 12 12 13 15 15 17 18 18 17 14 13 13 11 10 8 6 3 3 4 5 5 3 1 0 0 0 0 0 0
16 16 15 15 16 15 14 13 11 10 10 11 11 11 10 10 11 12 14 15 16 18 18 15 12 12 11 10 9 8 7 5 5 6 6 4 1 0 0 0 0 0 0
11 11 11 10 11 11 11 10 9 8 7 8 9 9 9 10 10 10 11 13 12 13 15 14 13 12 11 10 10 10 9 6 5 6 6 5 2 0 0 0 0 0 0
7 6 6 7 8 9 9 8 7 6 5 5 7 7 7 8 8 9 10 10 9 8 10 11 11 10 9 9 10 10 9 7 6 6 6 5 3 1 1 1 0 0 0
4 3 4 4 5 7 8 8 7 6 3 3 5 6 5 5 5 6 8 8 6 5 6 7 6 5 6 7 8 8 8 6 6 6 6 5 3 3 2 2 1 0 0
3 2 2 3 4 5 7 7 7 4 2 2 3 4 3 2 2 3 5 6 4 3 2 3 2 1 2 3 5 6 5 5 5 6 6 5 4 3 3 3 2 1 0
2 1 1 2 4 5 6 6 5 3 1 0 1 1 1 1 2 2 3 4 2 1 0 0 0 0 0 0 2 3 4 3 4 4 5 6 5 4 3 3 2 1 0
2 1 1 2 4 6 6 6 4 2 0 0 0 0 0 1 1 2 3 3 1 0 0 0 0 0 0 0 0 1 2 3 3 3 4 5 6 5 4 3 1 0 0
1 0 1 2 4 5 6 5 4 2 1 0 0 0 0 0 1 1 3 2 1 0 0 0 0 0 0 0 0 0 1 2 3 3 3 4 5 6 4 3 1 0 0
0 0 1 3 4 4 4 4 3 2 1 0 0 0 0 0 1 2 3 2 1 0 0 0 0 0 0 0 0 0 0 1 1 2 3 3 4 6 5 4 1 0 0
0 0 1 3 4 3 3 3 3 2 1 0 0 0 0 0 1 1 2 1 1 0 0 0 0 0 0 0 0 0 0 0 0 1 3 3 4 5 6 5 2 1 0
0 0 1 2 3 3 3 2 2 1 0 0 0 0 0 0 0 0 1 1 1 0 0 0 0 0 0 0 0 0 0 0 0 1 2 3 3 4 5 4 3 1 0
0 0 0 1 2 2 1 1 1 0 0 0 0 0 0 0 0 0 0 1 2 1 0 0 0 0 0 0 0 0 0 0 0 0 1 2 3 3 4 3 3 2 1
0 0 0 0 1 1 0 0 0 0 0 0 0 0 0 0 0 0 0 1 2 1 0 0 0 0 0 0 0 0 0 0 0 0 0 1 2 3 3 3 3 3 3
0 0 0 0 0 0 0 0 0 0 0 0 0 0 0 0 0 0 0 0 1 1 0 0 0 0 0 0 0 0 0 0 0 0 0 0 1 2 2 2 3 3 3
0 0 0 0 0 0 0 0 0 0 0 0 0 0 0 0 0 0 0 0 0 0 0 0 0 0 0 0 0 0 0 0 0 0 0 0 1 1 1 1 2 3 3
0 0 0 0 0 0 0 0 0 0 0 0 0 0 0 0 0 0 0 0 0 0 0 0 0 0 0 0 0 0 0 0 0 0 0 0 0 0 1 2 3 2 2
0 0 0 0 0 0 0 0 0 0 0 0 0 0 0 0 0 0 0 0 0 0 0 0 0 0 0 0 0 0 0 0 0 0 0 0 0 0 1 2 3 2 1
0 0 0 0 0 0 0 0 0 0 0 0 0 0 1 1 0 0 0 0 0 0 0 0 0 0 0 0 0 0 0 0 1 1 0 0 0 0 0 1 2 1 0
0 0 0 0 0 0 0 0 0 0 0 0 0 1 2 2 1 0 0 0 0 0 0 0 0 0 0 0 0 0 0 0 1 2 1 0 0 0 0 1 1 0 0
0 0 0 0 0 0 0 0 0 0 0 0 0 1 2 2 2 1 1 1 0 0 0 0 0 0 0 0 0 0 0 0 1 1 1 0 0 0 0 0 0 0 0
0 0 0 0 0 0 0 0 0 0 0 0 0 1 1 1 1 2 2 2 1 0 0 0 0 0 0 0 0 0 0 0 0 0 0 0 0 0 0 0 0 0 0
0 0 0 0 0 0 0 0 0 0 0 0 0 0 0 0 0 1 2 2 1 0 0 0 0 0 0 0 0 0 0 0 0 0 0 0 0 0 0 0 0 0 0
0 0 0 0 0 0 0 0 0 0 0 0 0 0 0 0 0 0 1 1 0 0 0 0 0 0 0 0 0 0 0 0 0 0 0 0 0 0 0 0 0 0 0
0 0 0 0 0 0 0 0 0 0 0 0 0 0 0 0 0 0 0 0 0 0 0 0 0 0 0 0 0 0 0 0 0 0 0 0 0 0 0 0 0 0 0

GEFSMW_con_probscp_192.txt.gz
Probability
9 9 8 8 9 10 11 11 9 8 7 6 6 4 4 4 4 3 3 5 6 6 7 8 8 9 10 10 9 8 7 6 5 4 4 3 3 2 2 3 4 4 4
8 8 7 7 8 9 9 8 6 5 5 5 4 3 3 4 4 3 3 3 3 5 7 8 8 9 10 10 9 8 7 6 6 5 4 3 3 1 1 2 4 4 4
8 7 6 6 6 6 6 4 2 3 3 3 2 1 1 3 4 3 2 1 1 3 6 7 7 8 9 9 8 7 6 6 6 6 5 4 2 1 0 1 1 2 2
8 6 4 4 3 4 4 3 1 2 2 1 1 0 1 2 2 2 2 1 0 1 3 4 6 7 7 7 6 6 6 6 6 6 5 4 2 1 0 0 0 0 0
7 5 3 2 1 1 2 2 1 1 1 0 0 0 2 2 2 1 1 0 0 0 2 3 4 5 6 5 4 3 4 4 4 4 4 3 2 1 0 0 0 0 0
6 5 3 1 0 0 2 3 2 1 1 0 0 0 1 2 1 1 0 0 0 0 2 3 3 3 4 2 1 1 2 2 1 2 2 2 1 0 0 0 0 0 0
5 4 2 1 0 1 2 3 3 3 2 1 0 0 0 0 0 0 0 0 0 0 2 2 1 1 1 0 0 0 1 1 0 0 1 2 1 0 0 0 0 0 0
2 1 1 0 0 1 2 3 3 3 3 1 0 0 0 0 0 0 0 0 0 0 1 1 0 0 0 0 0 0 0 0 0 0 1 2 2 1 1 0 0 0 0
1 0 0 0 0 1 2 3 3 3 3 2 1 0 0 0 0 0 0 0 0 0 0 0 0 0 0 0 0 0 0 0 0 0 0 1 2 3 2 1 0 0 0
0 0 0 0 0 0 1 3 3 3 3 3 2 1 0 0 0 0 0 0 0 0 0 0 0 0 0 0 0 0 0 0 0 0 0 1 2 3 3 2 1 0 0
0 0 0 0 0 0 1 2 3 3 3 3 2 1 0 0 0 0 0 0 0 0 0 0 0 0 0 0 0 0 0 0 0 0 0 0 1 2 3 3 2 1 0
0 0 0 0 0 0 0 1 3 3 3 3 2 0 0 0 0 0 0 0 0 0 0 0 0 0 0 0 0 0 0 0 0 0 0 0 0 1 2 3 3 1 0
0 0 0 0 0 0 1 1 3 3 3 3 2 0 0 0 0 0 0 0 0 0 0 0 0 0 0 0 0 0 0 0 0 0 0 0 0 0 1 2 3 2 1
0 0 0 0 0 0 1 2 2 2 2 2 1 0 0 0 0 0 0 0 0 0 0 0 0 0 0 0 0 0 0 0 0 0 0 0 0 0 0 1 2 3 3
0 0 0 0 0 0 1 1 1 1 1 1 0 0 0 0 0 0 0 0 0 0 0 0 0 0 0 0 0 0 0 0 0 0 0 0 0 0 0 0 1 2 3
0 0 0 0 0 0 0 0 0 0 0 0 0 0 0 0 0 0 0 0 0 0 0 0 0 0 0 0 0 0 0 0 0 0 0 0 0 0 0 0 0 1 2
0 0 0 0 0 0 0 0 0 0 0 0 0 0 0 0 0 0 0 0 0 0 0 0 0 0 0 0 0 0 0 0 0 0 0 0 0 0 0 0 0 0 1
0 0 0 0 0 0 0 0 0 0 0 0 0 0 0 0 0 0 0 0 0 0 0 0 0 0 0 0 0 0 0 0 0 0 0 0 0 0 0 0 0 0 0
0 0 0 0 0 0 0 0 0 0 0 0 0 0 0 0 0 0 0 0 0 0 0 0 0 0 0 0 0 0 0 0 0 0 0 0 0 0 0 0 0 0 0
0 0 0 0 0 0 0 0 0 0 0 0 0 0 0 0 0 0 0 0 0 0 0 0 0 0 0 0 0 0 0 0 0 0 0 0 0 0 0 0 0 0 0
0 0 0 0 0 0 0 0 0 0 0 0 0 0 0 0 0 0 0 0 0 0 0 0 0 0 0 0 0 0 0 0 0 0 0 0 0 0 0 0 0 0 0
0 0 0 0 0 0 0 0 0 0 0 0 0 0 0 0 0 0 0 0 0 0 0 0 0 1 1 0 0 0 0 0 0 0 0 0 0 0 0 0 0 0 0
0 0 0 0 0 0 0 0 0 0 0 0 0 0 0 0 0 0 0 0 0 0 0 0 0 1 2 1 0 0 0 0 0 0 0 0 0 0 0 0 0 0 0
0 0 0 0 0 0 0 0 0 0 0 0 0 0 0 0 0 0 0 0 0 0 0 0 0 1 1 1 0 0 0 0 0 0 0 0 0 0 0 0 0 0 0
0 0 0 0 0 0 0 0 0 0 0 0 0 0 0 0 0 0 0 0 0 0 0 0 0 0 0 0 0 0 0 0 0 0 0 0 0 0 0 0 0 0 0
0 0 0 0 0 0 0 0 0 0 0 0 0 0 0 0 0 0 0 0 0 0 0 0 0 0 0 0 0 0 0 0 0 0 0 0 0 0 0 0 0 0 0

GEFSMW_con_probscp_198.txt.gz
Probability
15 16 16 18 21 20 18 17 17 19 23 25 23 19 15 13 13 12 12 14 18 21 23 23 22 21 20 21 22 22 19 15 14 13 9 9 10 8 7 7 6 6 6
15 17 19 20 20 18 14 14 16 17 19 20 20 17 14 12 10 10 11 13 14 16 18 20 22 21 19 19 21 21 18 15 14 13 11 11 10 7 6 6 6 5 6
14 17 19 19 18 15 12 12 14 15 15 15 15 13 11 9 7 8 9 10 10 11 12 16 20 21 20 20 22 22 19 17 15 14 13 11 9 8 7 7 5 4 5
12 14 16 15 14 12 12 12 12 12 12 12 10 10 8 7 6 6 7 8 9 10 11 13 16 19 21 22 23 23 21 18 15 14 12 9 8 9 7 6 4 3 3
12 12 13 12 10 9 10 10 10 10 9 7 7 8 8 6 5 4 5 7 8 9 10 12 14 17 20 21 21 21 19 16 13 11 9 6 7 7 6 4 4 4 3
12 11 11 10 8 6 6 7 7 7 5 4 4 5 6 6 5 5 5 6 6 7 8 10 12 14 15 16 16 16 15 12 11 10 7 5 5 6 6 4 4 6 6
10 9 8 8 6 4 3 4 5 5 4 3 3 4 4 4 5 5 6 6 5 4 5 8 9 9 9 10 13 13 10 8 8 7 5 4 3 6 7 6 5 7 8
7 7 7 6 4 2 2 3 2 2 2 3 3 3 3 4 5 5 6 6 5 3 3 4 5 4 4 5 8 10 7 7 6 5 4 2 3 5 7 6 5 6 6
5 6 6 5 3 1 1 2 2 1 1 2 3 3 3 4 5 5 5 5 4 4 3 2 2 1 1 3 6 7 6 6 5 3 2 1 2 4 5 5 5 4 4
4 6 6 5 2 0 0 1 2 3 2 3 4 4 4 4 4 4 4 3 2 3 2 1 0 0 0 2 4 4 3 3 3 1 0 0 1 2 4 5 5 5 5
4 5 5 3 1 0 0 1 2 4 5 6 7 6 6 5 4 4 4 3 1 1 2 1 0 0 0 1 1 1 1 1 1 0 0 0 1 2 4 5 6 6 7
3 3 3 1 0 0 0 1 3 4 6 7 8 8 8 8 6 5 4 2 1 0 1 1 0 0 0 0 0 0 0 0 0 0 0 0 1 2 3 4 5 6 7
2 2 1 1 0 0 0 1 3 4 5 6 7 8 8 9 8 6 4 2 0 0 0 0 0 0 0 0 0 0 0 0 0 0 0 0 0 1 2 3 4 5 6
2 1 0 0 0 0 0 1 2 3 4 5 6 7 7 7 7 5 3 2 1 1 0 0 0 0 0 0 0 0 0 0 0 0 0 0 0 1 2 2 3 4 5
1 0 0 0 0 0 0 1 2 3 3 4 5 6 6 6 5 3 2 2 2 2 1 0 1 1 1 0 0 0 0 1 1 0 0 0 0 1 1 1 1 1 2
0 0 0 0 0 0 0 0 2 3 3 3 4 4 4 3 3 1 1 1 2 2 1 0 2 3 1 0 0 0 1 2 2 1 0 0 0 0 0 0 0 0 1
0 0 0 0 0 0 0 0 1 2 2 2 2 2 2 1 1 0 0 1 1 2 1 2 4 4 3 1 0 0 1 2 3 2 1 0 0 0 0 0 0 0 0
0 1 1 0 0 0 0 0 1 1 1 1 1 1 1 0 0 0 0 0 1 2 2 3 5 6 4 1 0 0 0 2 3 3 2 0 0 0 0 0 0 0 0
1 2 1 0 0 0 0 0 0 0 0 0 0 0 0 0 0 1 1 0 1 1 2 4 7 7 5 2 0 0 0 2 3 3 1 0 0 0 0 0 0 0 0
3 2 1 1 1 1 0 0 0 0 0 0 0 0 0 0 0 1 2 1 1 0 1 4 7 7 5 3 1 0 0 1 2 2 1 0 0 0 0 0 0 0 0
3 3 2 2 2 2 1 0 0 0 0 0 0 0 0 0 0 1 2 1 0 0 2 4 6 5 4 2 1 0 0 0 1 1 1 0 0 0 0 0 0 0 0
3 3 3 3 3 3 2 1 0 0 0 0 0 0 0 1 1 2 1 0 0 1 3 4 3 3 3 2 0 0 0 0 1 2 1 0 0 0 0 0 0 0 0
3 3 3 3 3 3 3 1 0 0 0 0 0 0 1 2 3 2 1 0 1 2 3 2 1 1 1 1 0 0 0 0 1 2 1 0 0 0 0 0 0 0 0
3 3 3 3 3 3 3 2 1 1 1 1 1 0 1 2 3 3 1 1 1 2 1 1 0 0 0 0 0 0 0 0 0 0 0 0 0 0 0 0 0 0 0
2 3 3 3 3 3 3 3 3 2 2 2 2 1 1 2 3 2 1 1 1 1 0 0 0 0 0 0 0 0 0 0 0 0 0 0 0 0 0 0 0 0 0
3 3 3 3 3 3 3 3 3 3 3 3 2 1 1 2 3 2 1 0 0 0 0 0 0 0 0 0 0 0 0 0 0 0 0 0 0 0 0 0 0 0 0

GEFSMW_con_probscp_204.txt.gz
Probability
23 24 25 23 23 27 34 38 37 37 37 35 32 29 25 23 23 23 21 19 18 16 15 17 22 24 23 24 24 22 18 15 12 9 7 7 9 11 11 11 10 8 6
20 23 24 23 23 27 33 38 40 39 37 35 32 29 27 25 23 21 20 18 16 15 15 17 21 21 20 21 23 21 17 14 13 10 8 7 8 10 9 9 8 8 8
18 20 22 23 23 25 30 36 40 41 38 33 28 26 24 22 19 18 18 17 14 13 15 17 18 18 18 19 21 19 16 14 13 11 10 8 8 8 7 6 6 8 9
16 18 20 20 20 21 25 31 35 37 35 30 24 21 19 16 14 16 18 18 15 14 16 18 17 16 17 19 19 18 17 15 13 12 11 9 8 7 6 4 4 6 9
15 15 16 17 16 18 22 26 29 30 30 26 21 18 14 11 11 14 18 20 18 16 15 16 16 16 17 19 19 19 18 17 14 12 11 9 7 5 4 3 3 5 6
14 14 15 16 16 17 19 22 25 26 25 21 17 14 10 8 9 11 14 15 15 14 13 12 14 16 18 21 22 22 20 17 14 11 9 7 5 4 3 2 1 3 3
14 15 15 16 16 16 16 18 21 22 19 16 13 10 8 7 7 7 8 8 9 11 11 9 11 14 16 19 21 23 21 16 11 8 6 3 3 4 4 2 1 1 1
13 14 15 16 16 14 12 13 16 16 14 12 11 10 9 8 8 7 5 4 5 7 8 9 10 12 12 14 17 20 18 12 8 5 3 2 2 5 7 5 2 0 0
12 11 13 15 16 14 12 11 12 12 12 10 9 9 10 9 9 7 6 5 4 4 6 9 11 10 10 11 14 15 13 9 7 4 1 2 3 6 7 5 3 1 0
11 10 10 13 16 14 12 10 10 10 9 8 7 8 9 10 9 9 8 8 6 5 6 9 10 9 8 11 11 10 8 7 6 3 1 2 3 4 4 4 3 1 0
10 9 8 11 13 12 11 9 9 8 7 7 7 7 7 9 9 9 9 9 9 8 7 8 7 5 5 7 6 5 5 5 3 2 1 1 1 2 2 3 3 3 2
10 8 8 9 10 9 8 8 8 7 7 7 7 7 7 7 8 8 9 10 10 10 9 8 6 3 2 2 3 4 4 3 2 1 0 0 0 1 1 2 4 4 4
7 7 6 7 8 8 7 7 7 7 7 7 8 8 7 6 6 8 9 10 11 12 11 10 8 4 1 1 2 3 3 3 2 1 1 0 0 1 1 2 3 4 4
6 7 8 9 11 11 8 7 6 7 7 7 7 7 6 5 5 7 9 10 11 12 11 9 7 5 2 1 1 1 1 2 2 2 2 1 0 1 1 1 1 2 2
5 8 11 12 13 13 11 9 7 6 6 5 5 5 5 4 5 6 7 9 11 10 9 8 5 3 2 1 0 0 0 1 2 3 2 1 0 0 0 0 0 1 1
3 7 12 14 15 14 13 11 8 5 4 4 4 4 5 4 4 4 5 6 8 9 9 7 4 2 1 0 0 0 0 1 2 2 1 1 1 0 0 0 0 0 0
3 6 11 15 16 14 13 11 9 7 5 4 3 3 4 3 3 3 3 4 6 8 8 8 5 2 0 0 0 0 0 0 1 2 2 1 1 0 0 0 0 0 0
5 7 10 13 14 14 12 11 10 8 6 4 3 3 3 3 3 3 3 5 6 7 8 8 6 2 0 0 0 0 0 0 0 1 2 2 1 0 0 0 0 0 0
9 9 9 9 11 13 13 11 9 6 5 4 3 3 3 3 3 4 5 7 8 8 8 7 5 2 0 0 0 0 0 0 0 0 1 2 1 0 0 0 0 0 0
10 9 8 7 10 11 11 10 8 6 4 4 3 3 4 4 4 6 8 9 10 9 8 7 5 2 0 0 0 0 0 0 0 0 0 1 1 0 0 0 0 0 0
8 8 7 8 9 10 10 9 8 7 6 5 4 5 6 6 6 8 11 13 12 10 8 7 5 2 0 0 0 0 0 0 0 0 0 0 0 0 0 0 0 0 0
5 5 6 8 10 10 10 10 10 9 9 8 8 8 9 8 8 8 10 13 13 10 8 6 4 2 0 0 0 0 0 0 0 0 0 0 0 0 0 0 0 0 0
4 4 4 6 9 10 10 9 10 11 10 10 9 9 9 9 8 6 6 9 10 9 6 4 2 1 0 0 0 0 0 0 0 0 0 0 0 0 0 0 0 0 0
5 4 3 4 6 7 7 7 7 8 9 8 7 7 7 6 6 5 4 5 7 7 6 5 2 0 0 0 0 0 0 0 0 0 0 0 0 0 0 0 0 0 0
6 5 4 3 3 4 4 4 5 5 6 5 5 5 5 4 4 5 4 4 5 5 5 4 2 1 1 0 0 0 0 0 0 0 0 1 0 0 0 0 0 0 0
5 6 5 4 3 3 3 3 4 5 5 5 4 4 4 4 4 4 4 4 4 4 3 2 1 1 1 0 0 0 0 0 0 0 0 1 0 0 0 0 0 0 0

GEFSMW_con_probscp_210.txt.gz
Probability
17 18 16 14 11 7 4 4 5 6 7 8 9 10 10 9 9 7 5 2 1 1 2 2 1 1 3 3 2 2 1 0 1 2 2 2 2 3 2 1 1 0 0
17 17 16 13 10 7 4 4 4 4 5 7 8 9 9 8 7 6 5 4 2 1 1 2 2 1 1 1 2 2 1 0 0 1 1 1 1 2 2 2 2 1 1
16 16 16 14 11 6 5 5 5 4 4 5 6 7 7 7 6 4 4 5 4 2 1 1 1 0 0 0 2 3 2 1 0 0 0 0 0 0 1 2 2 2 2
14 15 15 14 10 7 6 6 6 5 4 3 4 5 5 5 4 3 3 4 5 3 1 0 0 0 0 0 1 2 2 1 0 0 0 0 0 0 0 1 1 2 3
11 12 13 11 8 7 7 7 6 4 3 3 3 3 2 3 3 2 2 3 4 3 1 0 0 0 0 0 0 1 1 0 0 0 0 0 0 0 0 0 0 1 2
6 8 10 10 8 8 8 7 6 4 3 2 1 1 0 1 1 1 1 1 3 3 2 0 0 0 0 0 0 0 0 0 0 0 0 0 0 0 0 0 0 0 1
4 5 8 9 8 8 8 7 5 3 2 1 0 0 0 0 0 0 0 1 2 2 1 0 0 0 0 0 0 0 0 0 0 0 0 0 0 0 0 0 0 0 0
2 4 7 9 9 8 8 7 3 1 1 0 0 0 0 0 0 0 0 0 1 1 0 0 0 0 0 0 0 0 0 0 0 0 0 0 0 0 0 0 0 0 0
2 3 6 9 9 7 6 4 2 1 0 0 0 0 0 0 0 0 0 0 0 0 0 0 0 0 0 0 0 0 0 0 0 0 0 0 0 0 0 0 0 0 0
2 3 6 9 9 7 4 3 2 1 0 0 0 0 0 0 0 0 0 0 0 0 0 0 0 0 0 0 0 0 0 0 0 0 0 0 0 0 0 0 0 0 0
2 3 5 7 7 5 3 3 3 2 0 0 0 0 0 0 0 0 0 0 0 0 0 0 0 0 0 0 0 0 0 0 0 0 0 0 0 0 0 0 0 0 0
2 3 5 6 6 4 3 3 3 2 1 1 1 1 1 1 1 1 0 0 0 0 0 0 0 0 0 0 0 0 0 0 0 0 0 0 0 0 0 0 0 1 1
3 3 5 6 6 5 4 3 3 3 3 2 2 2 2 2 2 2 1 0 0 0 0 0 0 0 0 0 0 0 0 0 0 0 0 0 0 0 0 0 0 1 1
3 3 4 4 4 4 3 3 3 3 3 3 3 3 3 3 3 3 2 1 0 0 0 0 0 0 0 0 0 0 0 0 0 0 0 0 0 0 0 0 0 0 1
3 3 2 1 1 2 3 3 3 3 3 3 3 3 3 3 3 3 3 1 0 0 0 0 0 0 0 0 0 0 0 0 0 0 0 0 0 0 0 0 0 0 0
4 3 2 1 0 1 2 3 3 3 3 3 3 3 3 3 3 3 3 2 1 0 0 0 0 0 0 0 0 0 0 0 0 0 0 0 0 0 0 0 0 0 0
4 4 3 2 1 0 1 1 2 3 3 3 3 3 3 3 3 3 3 3 2 1 0 0 0 0 0 0 0 0 0 0 0 0 0 0 0 0 0 0 0 0 0
3 3 2 2 2 1 0 0 1 1 2 3 3 3 3 3 3 3 3 3 3 2 1 0 0 0 0 0 0 0 0 0 0 0 0 0 0 0 0 0 0 0 0
1 1 0 1 1 1 0 0 0 0 1 1 2 3 3 3 3 3 3 3 3 3 2 1 0 0 0 0 0 0 0 0 0 0 0 0 0 0 0 0 0 0 0
0 0 0 0 0 0 0 0 0 0 0 0 1 2 3 3 3 3 3 3 3 3 3 1 0 0 0 0 0 0 0 0 0 0 0 0 0 0 0 0 0 0 0
0 0 0 0 0 0 0 0 0 0 1 1 0 1 2 3 3 3 3 3 3 3 3 2 1 0 0 0 0 0 0 0 0 0 0 0 0 0 0 0 0 0 0
0 0 0 0 0 0 0 0 0 0 1 2 1 1 1 3 3 3 3 3 3 3 3 3 1 0 0 0 0 0 0 0 0 0 0 0 0 0 0 0 0 0 0
0 0 0 0 0 0 0 0 0 0 1 2 2 2 2 2 3 3 3 3 3 3 3 3 2 1 0 0 0 0 0 0 0 0 0 0 0 0 0 0 0 0 0
0 0 0 0 0 0 0 0 0 0 0 1 2 2 2 2 2 3 3 3 3 3 3 3 3 2 1 1 1 0 0 0 0 0 0 0 0 0 0 0 0 0 0
0 0 0 0 0 0 0 0 0 0 0 0 1 1 2 2 2 2 2 2 2 2 3 3 3 3 2 2 1 0 0 0 0 0 0 0 0 0 0 0 0 0 0
0 0 0 0 0 0 0 0 0 0 0 0 0 0 1 1 1 1 1 1 1 1 2 3 3 3 2 1 1 0 0 0 0 0 0 0 0 0 0 0 0 0 0

GEFSMW_con_probscp_216.txt.gz
Probability
6 6 7 7 7 6 5 3 1 0 0 0 1 3 3 3 3 3 4 4 3 2 1 1 1 1 0 1 2 2 1 0 0 1 2 3 3 3 3 3 2 1 0
7 7 7 8 8 6 5 3 1 0 0 1 2 3 3 3 3 3 3 3 1 1 1 2 2 1 0 0 1 2 2 0 0 0 1 2 3 3 3 3 3 1 1
8 8 8 8 9 8 5 3 1 0 1 2 3 3 3 2 3 3 2 1 0 0 1 1 1 1 0 0 1 1 1 1 0 0 0 1 2 2 3 3 3 3 2
6 7 8 8 9 8 6 3 1 0 1 2 3 3 3 3 2 2 1 0 0 0 0 0 0 0 0 0 0 0 1 1 1 0 0 0 1 1 1 2 3 3 3
2 5 7 7 7 7 6 4 1 0 1 2 3 3 3 3 1 1 0 0 0 0 0 0 0 0 0 0 0 0 1 2 2 0 0 0 0 0 0 1 1 3 3
1 2 5 6 6 6 6 4 1 0 1 2 2 2 2 2 1 0 0 0 0 0 0 0 0 0 0 0 0 0 1 2 1 0 0 0 0 0 0 0 1 2 2
0 2 5 6 6 5 5 5 2 0 0 1 1 1 1 1 0 0 0 0 0 0 0 0 0 1 0 0 0 0 1 1 1 0 0 0 0 0 0 0 0 1 1
1 2 5 6 5 5 6 6 4 1 0 0 0 0 0 0 0 0 0 0 0 0 0 0 0 0 0 0 0 0 0 0 0 0 0 1 1 0 0 0 0 0 0
2 2 3 4 5 5 7 7 5 1 0 0 0 0 0 0 0 0 0 0 0 0 0 0 0 0 0 0 0 0 0 0 0 0 0 1 2 1 0 0 0 0 0
2 1 1 3 5 6 7 6 3 1 0 0 0 0 0 0 0 0 0 0 0 0 0 0 0 0 0 0 0 0 0 0 0 0 0 1 2 1 0 0 0 0 0
1 0 0 2 4 6 5 4 2 1 0 0 0 0 0 0 0 0 0 0 0 0 0 0 0 0 0 0 0 0 0 0 0 0 0 0 1 1 0 0 0 0 0
0 0 0 1 3 4 4 3 3 2 1 1 0 0 0 0 0 0 0 0 0 0 0 0 0 0 0 0 0 0 0 0 0 0 0 0 0 0 0 0 0 0 0
0 0 0 1 2 3 2 2 2 2 2 2 1 1 1 1 0 0 0 0 0 0 0 0 0 0 0 0 0 0 0 0 0 0 0 0 0 0 0 0 0 0 0
0 0 0 1 1 1 1 1 1 1 2 3 3 2 2 2 1 1 0 0 0 0 0 0 0 0 0 0 0 0 0 0 0 0 0 0 0 0 0 0 0 0 0
0 0 0 0 0 0 0 0 0 0 1 2 3 3 3 3 3 2 1 1 1 0 0 0 0 0 0 0 0 0 0 0 0 0 0 0 0 0 0 0 0 0 0
0 0 0 0 0 0 0 0 0 0 0 1 3 3 3 3 3 3 3 2 2 1 1 1 0 0 0 0 0 0 0 0 0 0 0 0 0 0 0 0 0 0 0
0 0 0 0 0 0 0 0 0 0 0 1 2 3 3 3 3 3 3 3 3 3 2 2 1 0 0 0 0 0 0 0 0 0 0 0 0 0 0 0 0 0 0
0 0 0 0 0 0 0 0 0 0 0 0 1 1 2 3 3 3 3 3 3 3 3 3 2 1 0 0 0 0 0 0 0 0 0 0 0 0 0 0 0 0 0
0 0 0 0 0 0 0 0 0 0 0 0 0 0 1 1 2 3 3 3 3 3 3 3 3 2 1 0 0 0 0 0 0 0 0 0 0 0 0 0 0 0 0
0 0 0 0 0 0 0 0 0 0 0 0 0 0 0 0 1 1 2 3 3 3 3 3 3 3 2 1 0 0 0 0 0 0 0 0 0 0 0 0 0 0 0
0 0 0 0 0 0 0 0 0 0 0 0 0 0 0 0 0 0 1 2 3 3 3 3 3 3 3 2 1 0 0 0 0 0 0 0 0 0 0 0 0 0 0
0 0 0 0 0 0 0 0 0 0 0 0 0 0 0 0 0 0 0 1 2 3 3 3 3 3 3 2 1 0 0 0 0 0 0 0 0 0 0 0 0 0 0
0 0 0 0 0 0 0 0 0 0 0 0 0 0 0 0 0 0 0 0 1 2 2 3 3 3 3 3 1 0 0 0 0 0 0 0 0 0 0 0 0 0 0
0 0 0 0 0 0 0 0 0 0 0 0 0 0 0 0 0 0 0 0 0 1 1 1 2 2 2 2 1 0 0 0 0 0 0 0 0 0 0 0 0 0 0
0 0 0 0 0 0 0 0 0 0 0 0 0 0 0 0 0 0 0 0 0 0 0 0 1 1 1 1 1 0 0 0 0 0 0 0 0 0 0 0 0 0 0
0 0 0 0 0 0 0 0 0 0 0 0 0 0 0 0 0 0 0 0 0 0 0 0 0 0 0 0 0 0 0 0 0 0 0 0 0 0 0 0 0 0 0

GEFSMW_con_probscp_222.txt.gz
Probability
12 11 10 10 13 16 17 16 17 18 18 17 17 15 13 10 6 5 6 8 9 8 8 9 10 10 11 12 14 14 15 15 15 14 13 12 11 11 12 14 13 9 7
12 12 11 12 12 14 16 17 17 16 16 17 18 15 11 8 5 5 6 7 8 8 7 8 9 9 10 10 11 13 14 14 14 14 13 11 10 10 10 10 10 9 8
10 12 14 14 14 13 14 16 17 16 16 18 18 15 11 7 6 6 6 7 7 7 7 7 7 8 8 8 8 10 11 12 14 15 13 10 9 9 9 8 8 10 11
10 13 15 16 15 14 13 15 17 18 19 19 17 15 13 10 8 7 7 8 7 6 6 6 6 7 7 7 7 8 9 11 13 16 14 10 8 8 9 9 8 9 11
11 13 15 16 16 15 15 16 17 19 19 18 17 16 15 13 10 9 8 8 8 7 6 6 6 6 6 7 7 7 8 8 11 14 14 10 8 8 8 8 8 8 9
11 12 14 16 16 16 16 17 18 18 17 16 16 17 16 14 12 11 10 9 9 8 7 5 5 5 6 6 6 7 7 7 10 13 13 11 10 9 8 8 9 9 9
11 12 14 16 16 16 17 18 19 18 16 14 14 15 15 14 12 11 10 10 9 9 8 6 4 5 5 6 6 6 7 8 9 11 13 13 13 13 12 11 11 10 8
12 13 14 16 16 17 17 19 19 19 16 14 13 13 12 11 10 9 9 9 8 8 7 6 4 4 5 5 5 6 7 9 10 10 11 13 15 15 15 14 12 8 6
12 12 13 15 16 17 17 18 19 19 17 15 13 11 10 9 7 7 7 7 6 6 5 4 4 4 4 4 4 4 6 8 9 9 10 12 14 15 16 14 10 7 5
10 10 12 15 17 17 17 18 19 18 16 14 12 10 10 8 7 6 6 6 5 5 4 4 4 4 4 4 4 3 4 5 7 8 8 9 11 12 12 12 10 8 7
9 10 12 15 18 18 18 18 18 16 13 11 10 10 9 8 7 7 7 7 7 7 6 6 5 4 4 4 5 4 3 3 3 3 4 5 7 8 9 10 10 9 8
9 9 12 15 17 17 16 15 14 12 10 10 10 10 9 8 8 9 9 9 9 9 9 8 6 6 6 6 6 5 4 2 1 1 1 1 3 5 6 7 7 7 6
9 9 11 12 14 15 14 12 10 9 9 10 10 10 9 9 9 9 9 9 9 9 9 8 7 6 6 7 7 6 4 3 2 2 2 2 2 3 4 3 3 3 3
9 9 10 11 13 14 13 11 10 9 9 9 9 9 8 8 8 8 8 8 8 8 7 7 7 6 6 7 7 7 6 6 5 5 5 4 3 2 1 1 0 1 3
6 7 9 11 12 12 11 10 9 9 8 7 7 7 7 6 6 7 7 7 7 7 6 6 6 6 6 6 6 7 7 7 6 6 6 6 4 2 0 0 0 2 3
4 5 6 7 8 7 7 6 6 6 5 4 4 4 4 4 4 4 5 6 6 6 6 6 6 6 5 4 3 4 5 6 6 6 6 5 3 1 0 0 0 1 1
3 3 4 4 4 4 4 4 3 3 2 1 1 1 1 1 1 1 3 4 4 3 3 3 4 4 4 3 1 1 2 3 5 5 5 4 3 2 2 1 0 0 0
4 4 4 4 4 4 3 2 1 1 0 0 0 0 0 0 0 0 1 3 3 1 1 1 3 3 3 2 1 0 1 1 2 3 3 3 3 3 2 2 1 1 0
4 4 4 4 3 3 2 1 0 0 0 0 0 0 0 0 0 0 1 3 2 1 0 1 2 3 3 2 1 1 1 1 1 1 2 2 3 2 2 2 2 2 1
3 3 2 1 1 1 1 0 0 0 0 0 0 0 0 0 0 1 2 3 2 1 0 0 1 2 2 2 1 1 2 3 2 2 2 2 1 1 1 1 2 2 2
2 1 1 0 0 1 2 1 0 0 0 0 0 0 0 0 0 1 2 2 1 0 0 0 0 1 1 1 0 1 2 3 3 3 3 2 1 0 0 0 1 1 1
1 1 1 0 0 1 1 1 0 0 0 0 0 0 0 0 0 0 1 1 0 0 0 0 0 0 0 0 0 0 1 1 2 3 3 2 1 0 0 0 0 0 0
1 1 1 0 1 1 1 0 0 0 0 0 0 0 0 0 0 0 0 0 0 0 0 0 0 0 0 0 0 0 0 0 1 2 1 1 0 0 0 0 0 0 0
2 2 1 1 2 1 0 0 0 0 0 0 0 0 0 0 0 0 0 0 0 0 0 0 0 0 0 0 0 0 0 0 0 0 0 0 0 1 1 1 1 0 0
3 3 2 2 2 1 0 0 0 0 0 0 0 0 0 0 0 0 0 0 0 0 0 0 0 0 0 0 0 0 0 0 0 0 0 0 0 1 2 2 2 1 1
3 3 2 1 1 0 0 0 0 0 0 0 0 0 0 0 0 0 0 0 0 0 0 0 0 0 0 0 0 0 0 0 0 0 0 0 0 1 3 3 3 2 2

GEFSMW_con_probscp_228.txt.gz
Probability
31 35 38 38 38 38 39 37 36 36 35 33 30 28 27 27 23 19 18 22 25 23 17 13 11 12 14 16 17 15 12 12 11 8 7 9 10 11 11 10 9 9 9
33 35 37 37 35 35 35 35 34 34 32 30 28 27 26 25 22 19 18 20 23 21 15 12 12 13 14 15 14 12 10 8 8 8 8 9 9 10 10 10 10 9 8
33 33 34 33 31 30 31 32 33 33 31 28 26 25 24 22 20 19 18 18 19 17 13 11 12 13 13 13 13 11 8 6 5 7 9 9 9 8 9 9 9 8 8
29 29 29 29 27 26 27 30 33 34 32 29 26 25 23 21 19 18 17 17 15 13 11 11 12 12 12 11 11 10 8 5 4 5 7 8 8 7 6 7 6 7 7
22 23 24 24 24 25 25 26 31 33 32 29 27 26 23 21 19 18 17 15 14 12 11 11 10 10 10 10 9 9 7 5 4 4 4 5 6 5 3 2 2 4 6
16 17 19 20 22 23 23 23 26 29 29 27 26 25 23 20 19 18 15 12 11 12 10 10 10 10 10 10 8 8 7 6 5 4 4 4 4 3 1 0 0 2 4
13 14 16 19 21 21 21 22 23 24 24 22 23 24 22 19 18 17 13 9 9 11 10 10 10 11 11 10 9 9 9 8 7 5 4 4 4 3 2 1 1 2 3
13 14 16 19 20 19 20 20 21 22 21 19 21 22 21 18 18 17 12 8 8 9 10 10 10 10 9 8 8 8 8 8 7 6 5 5 4 3 3 2 2 2 2
14 15 17 19 19 18 19 19 20 22 21 19 20 20 18 15 15 15 11 7 7 8 9 10 10 8 6 6 5 6 6 6 6 6 6 5 3 3 4 3 1 1 1
13 14 17 18 18 18 19 19 20 20 20 19 18 16 14 12 12 12 11 9 9 9 9 10 9 7 5 5 4 4 5 5 4 4 4 3 3 3 3 2 1 0 0
9 11 14 17 18 18 19 18 18 18 17 17 16 14 12 11 11 11 11 12 12 11 10 9 8 6 6 6 5 5 5 5 4 4 3 3 4 3 2 2 1 1 2
5 7 11 15 17 17 17 17 17 16 15 15 15 14 13 12 13 12 10 11 12 11 10 8 7 6 6 6 6 6 6 5 5 5 5 6 6 5 4 3 2 2 3
5 7 12 15 17 17 17 16 16 15 15 14 14 14 14 14 14 13 10 9 9 10 9 7 5 5 6 6 5 5 5 5 6 6 6 7 8 7 6 4 3 3 4
9 12 15 18 18 18 17 16 15 15 14 13 13 13 13 13 13 12 10 7 7 8 7 5 4 4 4 4 4 4 4 4 6 7 7 7 7 6 5 4 3 2 4
12 15 17 18 18 17 16 14 13 12 11 11 10 10 11 12 11 10 8 6 6 5 5 4 3 3 3 3 3 3 4 5 7 8 8 6 5 4 4 3 2 3 3
11 13 14 15 15 14 12 11 9 8 7 7 7 6 7 8 8 6 5 5 5 5 4 3 4 4 4 3 3 3 4 6 7 8 7 5 4 3 2 1 1 2 2
7 8 10 12 12 11 10 8 6 4 4 3 3 3 2 4 5 3 2 3 4 4 3 4 5 6 4 2 1 1 3 6 7 7 6 5 4 3 3 1 1 2 2
6 6 8 9 9 9 8 7 4 3 2 1 1 1 0 1 2 2 1 1 1 2 3 5 6 5 3 1 0 0 1 4 6 6 6 6 5 4 3 2 3 3 3
6 7 7 7 7 7 7 5 3 2 1 0 0 0 0 0 1 1 2 1 1 2 4 5 5 4 2 1 0 0 0 2 4 6 7 7 5 3 2 2 3 4 4
7 6 5 4 4 5 6 4 1 0 0 0 0 0 0 0 0 1 3 3 2 3 3 4 4 4 4 2 0 0 0 0 2 4 6 5 3 1 0 1 2 2 2
6 5 4 3 3 4 4 2 0 0 0 0 0 0 0 0 1 2 4 4 3 2 3 4 3 4 4 2 0 0 0 0 1 3 5 4 1 0 0 0 1 1 1
5 4 3 3 4 3 3 2 0 0 0 0 1 2 2 2 2 3 4 5 4 2 2 3 3 4 4 3 1 0 0 0 1 3 4 3 1 0 0 0 0 0 0
4 3 3 4 4 4 3 2 0 0 0 2 5 6 5 5 4 3 4 5 5 3 2 3 4 6 7 6 3 1 1 0 1 1 1 1 0 0 0 0 0 0 0
3 3 3 3 3 3 2 1 1 1 3 5 8 8 6 5 5 4 5 5 5 3 3 3 5 6 8 8 5 3 2 1 0 0 0 0 0 0 0 0 0 0 0
3 3 3 3 3 1 1 1 1 3 6 8 8 5 3 3 4 4 4 4 4 3 2 3 3 3 4 5 4 3 3 1 0 0 0 0 0 0 0 0 0 1 1
3 3 3 3 2 1 0 0 0 3 7 8 5 2 1 1 2 2 2 2 2 1 1 1 1 1 1 2 2 2 1 1 0 0 0 0 0 0 0 0 0 1 0

GEFSMW_con_probscp_234.txt.gz
Probability
23 24 25 24 21 17 16 16 16 16 16 16 15 14 12 11 10 10 10 10 9 7 6 6 6 6 6 6 5 3 2 1 0 0 0 0 0 0 0 0 0 0 0
24 23 23 22 19 16 15 15 15 15 15 16 15 14 12 11 10 10 10 10 9 7 6 6 6 6 6 6 6 5 4 2 1 0 0 0 0 0 0 0 0 0 0
21 19 19 19 17 15 14 15 14 14 14 14 14 13 12 11 10 10 10 9 8 7 6 6 6 7 7 7 6 6 6 5 3 1 0 0 0 0 0 0 0 0 0
17 17 17 16 15 14 15 15 15 14 14 13 12 12 11 10 9 9 9 8 7 6 6 6 6 7 7 6 6 6 6 6 5 3 1 1 0 0 0 0 0 0 0
14 16 17 16 14 14 15 16 16 16 15 13 11 10 10 9 8 7 7 6 5 4 4 4 4 5 6 5 4 4 4 4 5 4 2 1 0 0 0 0 0 0 0
12 14 17 16 15 15 16 16 15 15 15 14 11 10 10 9 8 6 5 4 3 3 3 3 3 4 4 3 4 4 4 4 4 4 3 2 0 0 0 0 0 0 0
11 14 17 17 16 16 16 15 14 14 13 13 12 10 10 9 8 6 4 3 3 3 3 3 3 3 3 3 3 4 3 4 4 4 3 2 1 0 0 0 0 0 0
12 14 16 17 16 16 16 16 14 13 11 11 11 10 9 8 7 5 3 3 3 3 3 3 3 3 3 3 3 3 3 3 4 4 3 3 2 1 0 0 0 0 0
13 13 14 14 14 14 15 15 14 11 9 9 9 9 8 7 6 4 3 3 3 3 3 3 3 3 3 3 3 3 3 2 3 3 3 3 2 1 0 0 0 0 0
11 11 10 10 11 10 11 11 11 9 7 7 7 7 7 6 6 4 3 3 3 3 2 2 2 3 3 3 3 3 2 1 1 2 2 2 2 1 1 0 0 0 0
7 7 8 9 8 6 6 7 7 6 6 6 7 7 7 6 6 5 4 3 2 1 1 1 1 1 2 2 2 2 2 1 1 1 1 1 1 1 1 0 0 0 0
4 5 6 7 6 3 3 4 4 4 5 6 7 7 6 6 6 5 3 2 1 0 0 0 0 0 1 1 1 1 1 1 0 0 0 0 0 1 1 0 0 0 0
3 3 3 4 3 1 1 2 4 5 6 6 6 5 4 4 4 3 1 1 0 0 0 0 0 0 0 0 0 0 0 0 0 0 0 0 0 0 0 0 0 0 0
2 2 1 1 1 0 1 3 6 8 8 8 6 4 3 3 3 1 0 0 0 0 0 0 0 0 0 0 0 0 0 0 0 0 0 0 0 0 0 0 0 0 0
1 1 0 0 0 0 1 4 8 9 10 9 7 5 3 2 2 1 0 0 0 0 0 0 0 0 0 0 0 0 0 0 0 0 0 0 0 0 0 0 0 0 0
1 1 1 1 1 2 3 6 8 9 9 8 6 4 2 1 1 0 0 0 0 0 0 0 0 0 0 0 0 0 0 0 0 0 0 0 0 0 0 0 0 0 0
2 2 3 3 3 4 5 5 5 6 6 5 3 1 0 0 0 0 0 0 0 0 0 0 0 0 0 0 0 0 0 0 0 0 0 0 0 0 0 0 0 0 0
3 3 4 4 4 4 4 4 4 4 3 2 0 0 0 0 0 0 0 0 0 0 0 0 0 0 0 0 0 0 0 0 0 0 0 0 0 0 0 0 0 0 0
3 3 3 4 3 3 3 3 3 2 1 0 0 0 0 0 0 0 0 0 0 0 0 0 0 0 0 0 0 0 0 0 0 0 0 0 0 0 0 0 0 0 0
3 3 3 3 3 3 2 2 1 1 0 0 0 0 0 0 0 0 0 0 0 0 0 0 0 0 0 0 0 0 0 0 0 0 0 0 0 0 0 0 0 0 0
3 3 3 3 2 1 1 1 0 0 0 0 0 0 0 0 0 0 0 0 0 0 0 0 0 0 0 0 0 0 0 0 0 0 0 0 0 0 0 0 0 0 0
3 3 3 3 1 0 0 0 0 0 0 0 0 0 0 0 0 0 0 0 0 0 0 0 0 0 0 0 0 0 0 0 0 0 0 0 0 0 0 0 0 0 0
3 3 3 2 1 0 0 0 0 0 0 0 0 0 0 0 0 0 0 0 0 0 0 0 0 0 0 0 0 0 0 0 0 0 0 0 0 0 0 0 0 0 0
3 3 2 1 0 0 0 0 0 0 0 0 0 0 0 0 0 0 0 0 0 0 0 0 0 0 0 0 0 0 0 0 0 0 0 0 0 0 0 0 0 0 0
2 1 1 0 0 0 0 0 0 0 0 0 0 0 0 0 0 0 0 0 0 0 0 0 0 0 0 0 0 0 0 0 0 0 0 0 0 0 0 0 0 0 0
1 0 0 0 0 0 0 0 0 0 0 0 0 0 0 0 0 0 0 0 0 0 0 0 0 0 0 0 0 0 0 0 0 0 0 0 0 0 0 0 0 0 0

GEFSMW_con_probscp_240.txt.gz
Probability
8 9 11 14 16 16 13 8 4 4 5 5 4 4 3 3 3 2 2 2 2 2 2 2 3 3 4 4 4 4 4 3 3 3 2 1 0 0 0 0 0 0 0
8 9 11 14 14 14 13 9 6 5 6 7 7 5 3 3 2 1 1 1 1 1 1 1 2 3 4 4 5 5 4 4 2 1 1 1 1 0 0 0 0 0 0
8 8 10 12 12 11 10 9 8 7 8 10 9 7 4 2 1 1 0 0 1 1 1 1 2 3 3 4 4 5 5 4 3 2 2 3 3 1 0 0 0 0 0
7 8 10 12 12 10 8 8 7 7 10 12 11 9 6 4 3 2 2 2 3 3 2 2 3 3 3 3 3 4 4 4 4 4 4 5 5 2 0 0 0 0 0
6 8 11 12 12 10 7 6 5 7 10 13 13 10 8 6 4 3 4 4 3 3 3 3 3 3 3 3 3 3 3 3 4 4 4 5 4 2 1 1 1 0 0
6 8 10 12 11 9 7 6 7 8 11 13 13 11 8 6 4 4 4 3 2 1 2 3 3 3 3 3 3 3 3 3 3 3 3 4 4 3 2 2 2 1 0
6 7 9 11 10 8 8 8 9 10 12 12 11 10 8 7 5 4 3 2 1 0 1 2 3 3 3 3 3 3 3 3 3 3 3 3 3 3 3 3 3 2 1
7 8 9 10 10 9 9 9 10 10 10 9 7 6 6 6 6 4 2 1 0 0 0 1 2 3 3 3 3 3 3 3 3 3 3 3 3 3 3 3 3 3 3
7 9 10 11 10 9 9 9 9 8 6 5 4 3 3 5 6 4 2 1 1 0 0 0 1 2 2 2 3 3 3 3 3 3 3 3 3 3 3 3 3 3 3
6 9 10 10 9 8 8 8 8 6 4 3 1 1 2 4 5 5 4 2 1 0 0 0 1 1 1 1 1 2 2 2 2 3 3 3 3 3 3 3 3 2 2
6 7 8 7 7 6 6 6 5 3 2 2 1 0 1 2 4 4 3 2 1 0 0 0 0 0 0 0 0 1 1 1 1 1 2 2 2 2 3 3 2 2 2
5 4 4 5 5 4 4 4 3 1 1 1 0 0 0 1 3 3 3 2 1 0 0 0 0 0 0 0 0 0 0 0 0 0 1 1 1 1 1 2 3 3 3
3 2 2 3 3 3 3 3 1 1 1 1 0 0 0 1 2 3 3 2 1 0 0 0 0 0 0 0 0 0 0 0 0 0 0 0 0 0 0 1 2 2 2
1 1 0 1 1 1 3 3 2 2 2 1 0 0 0 0 1 3 3 2 1 0 0 0 0 0 0 0 0 0 0 0 0 0 0 0 0 0 0 0 1 1 1
0 0 0 0 0 1 2 2 2 2 2 1 0 0 0 0 1 3 3 2 1 0 0 0 0 0 0 0 0 0 0 0 0 0 0 0 0 0 0 0 0 0 0
0 0 0 0 0 0 1 1 1 2 2 1 0 0 0 1 2 3 3 2 1 0 0 0 0 0 0 0 0 0 0 0 0 0 0 0 0 0 0 0 0 0 0
0 0 0 0 0 0 0 1 1 2 2 1 0 0 0 1 3 3 3 2 1 0 0 0 0 0 0 0 0 0 0 0 0 0 0 0 0 0 0 0 0 0 0
0 0 0 0 0 0 1 2 3 3 2 1 0 0 0 1 2 2 2 2 1 0 0 0 0 0 0 0 0 0 0 0 0 0 0 0 0 0 0 0 0 0 0
0 0 0 0 0 0 1 3 3 3 3 1 1 0 0 1 1 1 1 1 0 0 0 0 0 0 0 0 0 0 0 0 0 0 0 0 0 0 0 0 0 0 0
0 0 0 0 0 1 2 3 3 3 3 3 2 1 0 0 0 0 0 0 0 0 0 0 0 0 0 0 0 0 0 0 0 0 0 0 0 0 0 0 0 0 0
1 1 1 1 1 2 3 3 3 3 3 3 2 1 0 0 0 0 0 0 0 0 0 0 0 0 0 0 0 0 0 0 0 0 0 0 0 0 0 0 0 0 0
2 2 2 2 3 3 3 3 3 3 3 2 1 0 0 0 0 0 0 0 0 0 0 0 0 0 0 0 0 0 0 0 0 0 0 0 0 0 0 0 0 0 0
3 3 3 3 3 3 3 3 3 3 2 1 0 0 0 0 0 0 0 0 0 0 0 0 0 0 0 0 0 0 0 0 0 0 0 0 0 0 0 0 0 0 0
3 3 3 3 3 3 3 2 2 1 1 0 0 0 0 0 0 0 0 0 0 0 0 0 0 0 0 0 0 0 0 0 0 0 0 0 0 0 0 0 0 0 0
3 3 3 3 3 2 1 1 1 0 0 0 0 0 0 0 0 0 0 0 0 0 0 0 0 0 0 0 0 0 0 0 0 0 0 0 0 0 0 0 0 0 0
3 3 3 3 3 1 0 0 0 0 0 0 0 0 0 0 0 0 0 0 0 0 0 0 0 0 0 0 0 0 0 0 0 0 0 0 0 0 0 0 0 0 0

GEFSMW_con_probscp_246.txt.gz
Probability
10 10 11 11 11 14 19 24 29 31 28 23 19 16 13 11 11 12 13 14 15 16 16 15 13 12 10 9 9 10 10 9 11 13 13 13 13 12 13 12 11 9 9
10 10 11 11 12 16 22 28 32 33 30 24 20 18 15 12 12 14 15 15 15 16 15 15 13 11 10 8 8 10 10 9 11 13 13 11 11 11 12 12 12 12 12
11 12 12 12 13 17 25 32 35 35 32 27 23 21 18 14 14 16 18 17 15 14 13 12 11 11 9 7 7 9 9 8 9 11 11 10 8 8 9 10 12 13 13
14 15 16 16 16 19 25 32 36 37 34 30 27 24 20 17 16 17 19 17 14 12 10 8 9 11 9 7 7 8 8 7 8 8 9 9 8 7 8 10 13 13 12
14 16 18 18 18 21 24 29 34 36 34 31 29 26 21 19 19 18 18 18 14 10 8 7 9 10 9 8 8 8 7 6 7 8 8 7 7 7 8 9 11 11 10
11 14 16 18 20 22 25 27 30 32 30 28 26 23 20 20 20 18 17 16 13 11 9 8 8 8 7 8 9 8 6 5 6 8 7 5 5 6 8 8 7 8 9
9 10 13 17 20 22 23 24 27 28 25 23 22 20 19 19 17 16 14 12 11 11 11 10 9 8 7 7 7 6 5 5 5 6 5 5 6 8 9 8 6 7 9
9 9 12 16 19 20 20 22 24 25 23 22 21 19 17 15 13 12 11 10 9 10 11 12 11 10 8 6 5 4 4 5 4 4 5 6 7 8 8 8 7 7 8
11 10 11 15 18 19 19 21 22 22 22 21 20 18 16 13 11 10 9 9 8 7 8 10 10 9 7 7 5 4 4 5 4 4 5 6 6 6 6 7 7 7 6
12 13 14 16 18 19 20 20 20 19 18 18 17 15 14 12 10 9 9 8 7 5 5 6 6 7 7 8 7 5 4 5 5 4 4 4 4 4 4 5 6 5 5
14 15 16 17 17 18 19 17 16 15 15 14 12 11 10 9 9 9 8 8 7 6 5 4 4 5 6 7 7 5 3 4 5 4 2 2 3 3 3 3 4 3 2
14 15 15 15 16 17 16 14 12 11 11 9 7 7 7 7 7 7 7 8 7 6 6 6 5 5 4 5 5 4 3 3 3 3 1 0 1 2 1 1 2 2 1
11 12 13 13 14 15 13 10 8 7 6 5 5 5 6 7 7 6 6 7 7 7 7 6 6 5 4 3 4 4 4 4 4 2 1 0 1 2 1 0 1 1 1
8 10 11 11 12 12 11 8 6 5 5 5 5 5 7 8 6 5 5 6 7 7 6 4 4 4 3 3 3 4 5 6 4 2 1 1 1 2 1 0 0 0 0
6 8 9 10 11 11 10 7 6 6 6 5 5 5 6 6 4 3 3 4 5 4 3 2 2 3 3 3 3 3 4 5 4 3 2 1 1 1 1 0 0 0 0
4 6 8 9 11 11 9 7 6 6 6 6 5 5 5 4 2 1 2 3 3 2 1 1 2 2 2 1 1 2 3 3 3 3 3 2 0 0 0 0 0 0 0
4 5 6 7 8 9 8 7 6 6 6 6 6 6 6 4 3 2 2 1 2 2 2 2 2 2 1 0 0 1 1 1 2 2 2 1 0 0 0 0 0 0 0
3 4 5 5 5 5 5 5 6 6 5 5 5 5 6 4 3 3 3 2 2 3 3 3 4 4 2 0 0 0 0 0 1 1 1 1 1 1 0 0 0 1 1
2 4 5 7 6 4 4 4 4 3 3 2 2 3 4 4 3 4 5 5 5 5 4 4 6 5 2 0 0 0 0 0 0 1 1 1 1 1 0 0 1 2 2
4 5 8 9 7 5 4 3 2 1 1 0 1 1 2 2 2 3 5 6 6 6 4 4 4 3 1 0 0 0 0 0 1 2 2 2 1 0 0 0 1 2 2
4 6 8 9 8 6 4 2 1 0 0 0 0 0 1 1 1 2 4 5 5 6 5 4 3 2 1 0 0 0 0 0 1 2 2 1 0 0 0 0 1 1 1
4 5 6 7 8 6 3 1 0 0 0 0 0 0 1 1 1 2 3 4 4 5 5 4 4 3 1 1 0 0 0 0 1 1 1 1 0 0 0 0 0 0 0
3 3 3 4 6 5 2 0 1 2 1 1 1 1 1 1 1 1 2 3 3 4 3 3 4 3 2 2 1 0 0 0 1 0 0 0 0 0 0 0 0 0 1
1 1 1 2 3 3 1 1 2 4 3 3 2 2 2 1 0 0 1 3 3 3 1 1 1 2 2 2 1 0 0 0 0 0 0 0 0 0 1 1 1 1 1
0 1 1 1 2 2 1 1 3 4 4 4 3 3 2 1 0 0 1 2 2 2 1 0 0 0 1 1 0 0 0 0 0 0 0 0 0 0 1 2 2 1 1
1 2 2 2 2 2 1 2 3 4 4 4 3 3 2 1 0 0 0 1 1 1 0 0 0 0 0 0 0 0 0 0 0 0 0 0 0 0 1 1 1 1 0